TimeICT,TemperatureF,Dew PointF,Humidity,Sea Level PressureIn,VisibilityMPH,Wind Direction,Wind SpeedMPH,Gust SpeedMPH,PrecipitationIn,Events,Conditions,WindDirDegrees,DateUTC
12:30 AM,77.0,69.8,78,29.89,-9999.0,Calm,Calm,-,N/A,,Clear,0,2012-10-29 17:30:00
1:00 AM,76,71,80,29.85,6,Calm,Calm,,,,,,2012-10-29 18:00:00
1:30 AM,75.2,68.0,78,29.89,-9999.0,Calm,Calm,-,N/A,,Clear,0,2012-10-29 18:30:00
2:00 AM,75.2,69.8,83,29.89,-9999.0,West,2.3,-,N/A,,Clear,260,2012-10-29 19:00:00
3:00 AM,73.4,69.8,88,29.89,-9999.0,Calm,Calm,-,N/A,,Clear,0,2012-10-29 20:00:00
4:00 AM,73.4,68.0,83,29.89,-9999.0,NNW,2.3,-,N/A,,Clear,340,2012-10-29 21:00:00
4:30 AM,73.4,68.0,83,29.89,-9999.0,Calm,Calm,-,N/A,,Clear,0,2012-10-29 21:30:00
5:00 AM,73.4,68.0,83,29.89,-9999.0,WNW,2.3,-,N/A,,Clear,290,2012-10-29 22:00:00
5:30 AM,73.4,68.0,83,29.89,-9999.0,Calm,Calm,-,N/A,,Clear,0,2012-10-29 22:30:00
6:00 AM,71.6,68.0,88,29.92,-9999.0,Calm,Calm,-,N/A,,Clear,0,2012-10-29 23:00:00
6:30 AM,73.4,68.0,83,29.92,-9999.0,WSW,2.3,-,N/A,,Clear,250,2012-10-29 23:30:00
7:00 AM,73,71,90,29.92,6,Calm,Calm,,,,,,2012-10-30 00:00:00
7:00 AM,73.4,68.0,83,29.92,-9999.0,Calm,Calm,-,N/A,,Clear,0,2012-10-30 00:00:00
7:30 AM,75.2,69.8,83,29.95,-9999.0,Calm,Calm,-,N/A,,Clear,0,2012-10-30 00:30:00
8:00 AM,77.0,69.8,78,29.95,-9999.0,SSE,1.2,-,N/A,,Clear,160,2012-10-30 01:00:00
8:30 AM,77.0,68.0,74,29.98,6.2,NW,1.2,-,N/A,,Partly Cloudy,320,2012-10-30 01:30:00
9:00 AM,78.8,68.0,69,29.98,6.2,NNE,4.6,-,N/A,,Partly Cloudy,30,2012-10-30 02:00:00
9:30 AM,80.6,68.0,65,29.98,6.2,North,3.5,-,N/A,,Partly Cloudy,350,2012-10-30 02:30:00
10:00 AM,84.2,68.0,58,29.95,6.2,NE,3.5,-,N/A,,Partly Cloudy,40,2012-10-30 03:00:00
10:30 AM,84.2,66.2,55,29.95,6.2,North,5.8,-,N/A,,Partly Cloudy,350,2012-10-30 03:30:00
11:00 AM,86.0,66.2,51,29.95,6.2,NW,3.5,-,N/A,,Partly Cloudy,310,2012-10-30 04:00:00
11:30 AM,87.8,66.2,49,29.92,6.2,NW,3.5,-,N/A,,Partly Cloudy,320,2012-10-30 04:30:00
12:00 PM,87.8,68.0,52,29.89,6.2,NNE,4.6,-,N/A,,Partly Cloudy,30,2012-10-30 05:00:00
12:30 PM,89.6,68.0,49,29.89,6.2,SSE,4.6,-,N/A,,Partly Cloudy,160,2012-10-30 05:30:00
1:00 PM,92,71,42,29.80,6,WSW,4.6,,,,Scattered Clouds,240,2012-10-30 06:00:00
1:00 PM,89.6,68.0,49,29.86,6.2,WSW,3.5,-,N/A,,Partly Cloudy,250,2012-10-30 06:00:00
1:30 PM,91.4,66.2,43,29.86,6.2,South,3.5,-,N/A,,Partly Cloudy,190,2012-10-30 06:30:00
2:00 PM,91.4,66.2,43,29.83,6.2,East,4.6,-,N/A,,Partly Cloudy,100,2012-10-30 07:00:00
2:30 PM,91.4,66.2,43,29.80,6.2,SE,6.9,-,N/A,,Partly Cloudy,130,2012-10-30 07:30:00
3:00 PM,93.2,66.2,41,29.80,6.2,SSE,5.8,-,N/A,,Partly Cloudy,150,2012-10-30 08:00:00
3:30 PM,93.2,64.4,38,29.80,6.2,ESE,4.6,-,N/A,,Partly Cloudy,120,2012-10-30 08:30:00
4:00 PM,93.2,66.2,41,29.80,6.2,SE,3.5,-,N/A,,Partly Cloudy,130,2012-10-30 09:00:00
4:30 PM,91.4,64.4,41,29.80,6.2,SSE,5.8,-,N/A,,Partly Cloudy,160,2012-10-30 09:30:00
5:00 PM,91.4,64.4,41,29.80,6.2,SE,5.8,-,N/A,,Partly Cloudy,140,2012-10-30 10:00:00
5:30 PM,89.6,66.2,46,29.80,6.2,SE,3.5,-,N/A,,Partly Cloudy,140,2012-10-30 10:30:00
6:00 PM,89.6,69.8,52,29.80,6.2,WSW,2.3,-,N/A,,Partly Cloudy,240,2012-10-30 11:00:00
6:30 PM,84.2,69.8,62,29.83,6.2,West,5.8,-,N/A,,Partly Cloudy,270,2012-10-30 11:30:00
7:00 PM,86,73,57,29.79,6,Calm,Calm,,,,,,2012-10-30 12:00:00
7:00 PM,82.4,69.8,66,29.83,6.2,West,3.5,-,N/A,,Partly Cloudy,280,2012-10-30 12:00:00
7:30 PM,82.4,69.8,66,29.86,6.2,West,3.5,-,N/A,,Partly Cloudy,270,2012-10-30 12:30:00
8:00 PM,82.4,69.8,66,29.86,6.2,West,5.8,-,N/A,,Partly Cloudy,260,2012-10-30 13:00:00
8:30 PM,80.6,69.8,70,29.89,6.2,Calm,Calm,-,N/A,,Partly Cloudy,0,2012-10-30 13:30:00
9:00 PM,80.6,69.8,70,29.89,6.2,Calm,Calm,-,N/A,,Partly Cloudy,0,2012-10-30 14:00:00
9:30 PM,80.6,69.8,70,29.89,6.2,NNW,3.5,-,N/A,,Partly Cloudy,330,2012-10-30 14:30:00
10:00 PM,80.6,69.8,70,29.92,-9999.0,Calm,Calm,-,N/A,,Clear,0,2012-10-30 15:00:00
10:30 PM,78.8,69.8,74,29.92,-9999.0,SW,2.3,-,N/A,,Clear,230,2012-10-30 15:30:00
11:00 PM,78.8,69.8,74,29.92,-9999.0,West,3.5,-,N/A,,Clear,280,2012-10-30 16:00:00
11:30 PM,78.8,71.6,78,29.92,-9999.0,SSW,2.3,-,N/A,,Clear,200,2012-10-30 16:30:00